Miscellaneous Local Product
Issued by NWS Hastings, NE

Home | Current Version | Previous Version | Text Only | Print | Product List | Glossary Off
Versions: 1 2 3 4 5 6 7 8 9 10 11 12 13 14 15 16 17 18 19 20 21 22 23 24 25 26 27 28 29 30 31 32 33 34 35 36 37 38 39 40 41 42 43 44 45 46 47 48 49 50

000
AXUS43 KGID 081802
MISGRI

GID CWA HOURLY WEATHER ROUNDUP
NATIONAL WEATHER SERVICE HASTINGS NE
1200 PM CST THU DEC 08 2016

NOTE: "FAIR" INDICATES FEW OR NO CLOUDS BELOW 12,000 FEET WITH NO
SIGNIFICANT WEATHER AND/OR OBSTRUCTIONS TO VISIBILITY.

...SOUTH CENTRAL NEBRASKA...

CITY           SKY/WX    TMP DP  RH WIND       PRES   REMARKS
GRAND ISLAND   SUNNY     19   4  51 NW14G22   30.63F WCI   6
HASTINGS       SUNNY     19   4  51 NW17G24   30.63F WCI   4
KEARNEY        SUNNY     19   1  45 N14       30.62F WCI   6
ORD            SUNNY     18   1  47 NW16      30.61F WCI   3
YORK           SUNNY     19   7  58 NW16      30.62F WCI   5
AURORA         SUNNY     19   5  52 NW21      30.62F WCI   3
LEXINGTON      SUNNY     19   2  47 N10       30.62F WCI   8
HOLDREGE       SUNNY     19   5  53 N10G18    30.61F WCI   8
HEBRON         SUNNY     20   7  55 NW13      30.65F WCI   8

...NEBRASKA PANHANDLE...

CITY           SKY/WX    TMP DP  RH WIND       PRES   REMARKS
CHADRON        SUNNY     11  -3  53 VRB6      30.57F WCI   1
ALLIANCE       SUNNY     10  -2  58 NW3       30.50F
SCOTTSBLUFF    SUNNY      8  -3  61 W3        30.51F
SIDNEY         SUNNY     10  -1  61 CALM      30.50F

...WESTERN AND NORTH CENTRAL NEBRASKA...

CITY           SKY/WX    TMP DP  RH WIND       PRES   REMARKS
VALENTINE      SUNNY     12  -4  48 NW16      30.61F WCI  -5
AINSWORTH      SUNNY     13   0  55 NW14G20   30.59F WCI  -2
ONEILL         SUNNY     16   3  55 NW16G24   30.61F WCI   1
BROKEN BOW     SUNNY     17   0  47 N16       30.59F WCI   2
IMPERIAL       SUNNY     11   0  61 N6        30.60F WCI   1
NORTH PLATTE   SUNNY     18   0  45 NW10      30.61F WCI   6
MCCOOK         SUNNY     11   1  64 W9        30.66F WCI  -2

...EASTERN NEBRASKA...

CITY           SKY/WX    TMP DP  RH WIND       PRES   REMARKS
NORFOLK        SUNNY     17   4  56 NW20G26   30.60S WCI   1
SO SIOUX CITY  SUNNY     19   6  57 NW25      30.60S WCI   1
TEKAMAH        SUNNY     20   8  60 NW22      30.62F WCI   3
COLUMBUS       SUNNY     19   7  58 NW21      30.62F WCI   3
ALBION         SUNNY     18   4  53 NW20      30.61F WCI   2
OMAHA EPPLEY   MOSUNNY   21   7  54 NW18G24   30.61F WCI   6
OFFUTT AFB     MOSUNNY   20   7  56 NW17G23   30.61F WCI   5
MILLARD        MOSUNNY   21   9  58 NW13G21   30.62F WCI   9
LINCOLN        SUNNY     21   6  52 N16       30.65F WCI   7
NEBRASKA CITY  SUNNY     20   4  48 NW14G22   30.62S WCI   7
BEATRICE       SUNNY     21   7  53 NW15G22   30.64F WCI   8
FALLS CITY     SUNNY     21   7  54 W18G25    30.63F WCI   6

...NORTHERN KANSAS...

CITY           SKY/WX    TMP DP  RH WIND       PRES   REMARKS
GOODLAND       SUNNY     13   1  59 N6        30.57F WCI   4
HILL CITY      SUNNY     18   5  57 NW13      30.69F WCI   5
NORTON         CLEAR     16   1  53 W12G20    30.66S WCI   3
PHILLIPSBURG   SUNNY     19   7  58 NW13      30.69F WCI   7
SMITH CENTER   SUNNY     18   7  62 W8G16     30.68F WCI   7
BELOIT         SUNNY     19   7  58 NW10      30.69F WCI   8
HAYS           SUNNY     20   6  55 N16       30.68F WCI   6
RUSSELL        SUNNY     20   6  55 NW16      30.67F WCI   6
CONCORDIA      SUNNY     20   8  60 NW12      30.67F WCI   8
SALINA         SUNNY     22   8  55 NW17      30.71F WCI   8
TOPEKA         SUNNY     24  11  57 W12       30.65F WCI  13



USA.gov is the U.S. government's official web portal to all federal, state and local government web resources and services.